Find Qianfan Jigui 02-16

NORAD ID: 61567 Int'l Des: 2024-185 Owner: YUANX Country: CN Constellation: spacesail operational
LEOCIRCULARPOLAR

当前视图

正在加载3D地球...

关于 Qianfan Jigui 02-16

正在加载描述...

即将过境

Passes for default location (London). Set your location on the main map for personalized predictions.

高度历史

Loading altitude history...

两行轨道根数

1 61567U 24185R 26151.47206604 .00000473 00000-0 29908-3 0 9994
2 61567 88.9809 59.2137 0006438 135.9144 224.2550 14.02458146 93146
Epoch: May 31, 2026 • Age: 6 hours

当前状态

高度 884.3 km
速度 7.41 km/s
星下点 4.03°N, 90.36°E
发射日期 Oct 15, 2024
运行时间 1.6 years
类型 internet

技术详情

分类 Payload
质量 267.00 kg
干质量 267.00 kg
总质量 267.00 kg
长度 0.30 m
直径 3.00 m
跨度 10.00 m
形状 Box+pan
制造商 GESIH/SECM
平台类型 Qianfan
阶段状态 In Orbit
所有者/国家 YUANX/CN

Most Searched